Saipan, MP

11:17 PM ChST on May 26, 2017 (GMT +1000)
Saipan International

Weather History for PGSN - September, 2013

Change the Weather History Date:

Wednesday, September 11, 2013

  Actual Average Record
Temperature  
Mean Temperature 78 °F -  
Max Temperature 84 °F 84 °F 89 °F (1996)
Min Temperature 73 °F 76 °F 73 °F (2000)
Cooling Degree Days 14    
Growing Degree Days 28 (Base 50)    
Moisture  
Dew Point 75 °F    
Average Humidity 86    
Maximum Humidity 94    
Minimum Humidity 74    
Precipitation  
Precipitation 0.60 in - - ()
Sea Level Pressure  
Sea Level Pressure 29.83 in    
Wind  
Wind Speed 14 mph (SW)    
Max Wind Speed 29 mph    
Max Gust Speed 41 mph    
Visibility 8 miles    
Events Rain    
Averages and records for this station are not official NWS values.
T = Trace of Precipitation, MM = Missing Value Source: NWS Daily Summary

Daily Weather History Graph

Daily Weather History Graph

Search for Another Location

Airport or City:

Trip Planner

Search our weather history database for the weather conditions in past years. The results will help you decide how hot, cold, wet, or windy it might be!

Date:

Astronomy

Sep. 11, 2013 Rise Set
Actual Time 6:05 AM ChST 6:21 PM ChST
Civil Twilight 5:43 AM ChST 6:43 PM ChST
Nautical Twilight 5:18 AM ChST 7:08 PM ChST
Astronomical Twilight 4:53 AM ChST 7:33 PM ChST
Moon 10:56 AM ChST (9/11) 10:40 PM ChST (9/11)
Length of Visible Light 12h 59m
Length of Day
12h 16m
Waxing Crescent, 32% of the Moon is Illuminated
Sep 11
Waxing Crescent
Sep 13
First Quarter
Sep 19
Full
Sep 27
Last Quarter
Oct 5
New

Hourly Weather History & Observations

Time (ChST) Temp. Heat Index Dew Point Humidity Pressure Visibility Wind Dir Wind Speed Gust Speed Precip Events Conditions
12:46 AM 77.0 °F - 73.4 °F 89% 29.79 in 5.0 mi SW 16.1 mph 25.3 mph 0.00 in Rain Rain
12:54 AM 77.0 °F - 73.9 °F 90% 29.85 in 3.0 mi SW 13.8 mph 23.0 mph 0.05 in Rain Rain
1:28 AM 77.0 °F - 75.2 °F 94% 29.78 in 10.0 mi SW 11.5 mph - 0.04 in   Mostly Cloudy
1:54 AM 78.1 °F - 75.0 °F 90% 29.83 in 10.0 mi SSW 13.8 mph - 0.04 in   Partly Cloudy
2:31 AM 78.8 °F - 75.2 °F 89% 29.76 in 10.0 mi South 12.7 mph - 0.00 in Rain Light Rain
2:33 AM 78.8 °F - 75.2 °F 89% 29.76 in 10.0 mi South 8.1 mph 17.3 mph 0.00 in Rain Light Rain
2:54 AM 79.0 °F - 75.9 °F 90% 29.82 in 10.0 mi SSW 6.9 mph - 0.00 in   Overcast
3:18 AM 78.8 °F - 75.2 °F 89% 29.76 in 10.0 mi SSW 11.5 mph 18.4 mph 0.00 in Rain Light Rain
3:54 AM 79.0 °F - 75.0 °F 88% 29.82 in 10.0 mi SW 8.1 mph - 0.02 in Rain Light Rain
4:54 AM 79.0 °F - 75.0 °F 88% 29.83 in 10.0 mi SSW 10.4 mph - 0.00 in   Mostly Cloudy
5:54 AM 80.1 °F 85.1 °F 75.0 °F 85% 29.83 in 10.0 mi SSW 12.7 mph - N/A   Clear
6:54 AM 81.0 °F 86.7 °F 75.0 °F 82% 29.84 in 10.0 mi SSW 18.4 mph 21.9 mph N/A   Clear
7:54 AM 82.0 °F 87.9 °F 73.9 °F 76% 29.86 in 10.0 mi SSW 15.0 mph - N/A   Mostly Cloudy
8:54 AM 84.0 °F 91.9 °F 75.0 °F 74% 29.88 in 10.0 mi SSW 16.1 mph 24.2 mph N/A   Scattered Clouds
9:43 AM 78.8 °F - 75.2 °F 89% 29.83 in 1.5 mi SSW 28.8 mph 41.4 mph 0.01 in Rain Rain
9:52 AM 77.0 °F - 73.4 °F 89% 29.82 in 2.0 mi SSW 18.4 mph 39.1 mph 0.09 in Rain Rain
9:54 AM 77.0 °F - 75.0 °F 94% 29.88 in 2.0 mi SSW 18.4 mph 28.8 mph 0.10 in Rain Rain
10:01 AM 78.8 °F - 75.2 °F 89% 29.81 in 3.0 mi SW 16.1 mph 26.5 mph 0.01 in Rain Rain
10:54 AM 81.0 °F 87.9 °F 77.0 °F 88% 29.86 in 10.0 mi SSW 13.8 mph 20.7 mph 0.06 in Rain Light Rain
11:54 AM 84.9 °F 96.6 °F 78.1 °F 80% 29.84 in 10.0 mi SSW 16.1 mph 28.8 mph 0.00 in   Overcast
12:01 PM 82.4 °F 90.9 °F 77.0 °F 84% 29.77 in 7.0 mi SSW 21.9 mph 27.6 mph 0.00 in Rain Light Rain
12:22 PM 82.4 °F 92.4 °F 78.8 °F 89% 29.76 in 10.0 mi SSW 18.4 mph 24.2 mph 0.01 in   Scattered Clouds
12:29 PM 84.2 °F 94.1 °F 77.0 °F 79% 29.77 in 10.0 mi SW 17.3 mph - 0.01 in   Mostly Cloudy
12:36 PM 84.2 °F 94.1 °F 77.0 °F 79% 29.76 in 10.0 mi SSW 15.0 mph 24.2 mph 0.01 in   Scattered Clouds
12:54 PM 84.9 °F 94.1 °F 75.9 °F 74% 29.82 in 10.0 mi SW 17.3 mph 31.1 mph 0.01 in   Partly Cloudy
1:54 PM 84.0 °F 92.6 °F 75.9 °F 76% 29.82 in 10.0 mi SW 13.8 mph - N/A   Partly Cloudy
2:54 PM 84.0 °F 92.6 °F 75.9 °F 76% 29.81 in 10.0 mi SW 11.5 mph - 0.00 in Rain Light Rain
3:54 PM 84.0 °F 91.9 °F 75.0 °F 74% 29.83 in 10.0 mi South 10.4 mph - 0.00 in   Mostly Cloudy
4:54 PM 82.9 °F 90.8 °F 75.9 °F 79% 29.83 in 10.0 mi SSW 15.0 mph 19.6 mph 0.00 in Rain Light Rain
5:35 PM 75.2 °F - 73.4 °F 94% 29.81 in 1.0 mi SSW 24.2 mph 29.9 mph 0.07 in Rain Heavy Rain
5:44 PM 73.4 °F - 71.6 °F 94% 29.79 in 2.0 mi SW 6.9 mph 28.8 mph 0.24 in Rain Heavy Rain
5:54 PM 75.9 °F - 72.0 °F 87% 29.86 in 7.0 mi South 5.8 mph - 0.27 in Rain Light Rain
6:54 PM 79.0 °F - 75.0 °F 88% 29.87 in 10.0 mi SSW 10.4 mph - 0.05 in   Scattered Clouds
7:54 PM 80.1 °F 85.4 °F 75.9 °F 87% 29.90 in 10.0 mi SW 9.2 mph - 0.00 in Rain Light Rain
8:54 PM 78.1 °F - 73.0 °F 84% 29.94 in 10.0 mi WNW 13.8 mph 23.0 mph 0.00 in Rain Light Rain
9:54 PM 75.9 °F - 73.9 °F 94% 29.94 in 10.0 mi NW 3.5 mph - 0.00 in   Mostly Cloudy
10:54 PM 78.1 °F - 73.9 °F 87% 29.93 in 10.0 mi NW 8.1 mph - N/A   Mostly Cloudy
11:01 PM 78.8 °F - 75.2 °F 89% 29.86 in 10.0 mi NW 5.8 mph - N/A   Mostly Cloudy
11:54 PM 78.1 °F - 75.0 °F 90% 29.90 in 10.0 mi West 4.6 mph - N/A   Mostly Cloudy